Showing default

GLOBALSTAR M004, 25163

Orbit data source: Space-Track

GLOBALSTAR M004, 25163 is a payload satellite owned by Globalstar (US) in LEO that was launched on Sat, 14 Feb 1998 UTC via a DELTA 7420-10C launch vehicle from the Air Force Eastern Test Range (AFETR). Payloads include a variety of satellites, spacecraft, and rockets equipped with specific instruments for various scientific and technological missions. These include communications satellites like Starlink; space stations such as the ISS; scientific satellites like the Hubble; Earth observation satellites from companies like Planet Labs, Umbra, and HawkEye 360; GPS; miniature CubeSats for education and research; and military/defense satellites.

Loading next visibility...
GLOBALSTAR M004 details
Identifier
25163, 1998-008B
Orbit
LEO
Last TLE update10 hours ago
Origin
Flag of USGlobalstar (US / GLOB)
ManufacturerSS/Loral
MissionNon-operational Commercial Communications
Bus & MotorLS-400, Unknown motor
Mass450 kg wet, 380 kg dry
Launch date (UTC)
1998-02-14 (27 years ago)
Launch vehicle
DELTA 7420-10C
Launch site
Air Force Eastern Test Range (AFETR)
Object type
Payload
Rocket body
Debris
Shape & HBRBox + 2 Pan, 12 m
Radar Cross Section5.587 m², Large (>1 m²)

Expand to show TLE details & history

TLE from 10 hours ago
0 GLOBALSTAR M004
1 25163U 98008B   24361.39345358 -.00000041  00000-0  34695-3 0  9994
2 25163  51.9978 221.3008 0001967 273.2267 257.7779 12.63383162239841
Epoch: 2024-12-26T09:26Z
Definitive object data (Epoch: 2024-12-26T09:26:34.389Z)
Latitude7.06493°
Longitude158.75454°
Altitude1,409.382 km
Speed7.157 km/s
True Right ascension02h 23m 05s
True Declination7° 01' 36"
Sunlit
Object was in daylight at TLE epoch
Visualization TLE readout
Latitude-51.9406°
Longitude-113.75847°
Altitude1,425.534 km
Speed7.149 km/s
Apparent Right ascension07h 30m 35s
Apparent Declination-46° 50' 59"
Sunlit
Object is in daylight
Visualization observer readout
Local Sidereal Time18:48:51
Azimuth224.064° SW
Elevation-79.741°
Doppler factor1
Orbital elements
Apogee altitude1,410.936 km
Perigee altitude1,407.872 km
Semi-major axis7,787.541 km
Eccentricity0.0001967
Inclination51.9978°
RAAN221.3008°
Arg. of periapsis273.2267°
True anomaly257.75587°
Mean anomaly257.7779°
Eccentric anomaly257.76689°
Mean motion3.15822 °/min
BSTAR0.00034695
Orbital period113.99 mins
Loading maneuver chart data...
Loading historical data...
Loading historical data...
Loading historical data...
Loading historical data...
Loading historical data...
Loading historical data...
Loading historical data...

GLOBALSTAR M004 Visibility forecast

Observer location: undefined°, undefined

Span
Click to sort rows by Start time (UTC) header in descending order
Start Az.
Max El. time (UTC)
Max El. Az.
Max El.
End time (UTC)
End Az.
15 mins2024-12-26 20:13:11.820Z280.775° WNW2024-12-26 20:21:11.820Z351.197° N32.795°2024-12-26 20:28:11.820Z53.383° ENE
14 mins2024-12-26 22:16:11.820Z311.212° NW2024-12-26 22:22:11.820Z8.061° NNE33.486°2024-12-26 22:30:11.820Z81.858° E
15 mins2024-12-27 00:16:11.820Z308.604° NW2024-12-27 00:23:11.820Z37.158° NE44.889°2024-12-27 00:31:11.820Z126.656° SE
12 mins2024-12-27 02:16:11.820Z286.044° WNW2024-12-27 02:22:11.820Z234.751° WSW25.944°2024-12-27 02:28:11.820Z184.55° SSW
7 mins2024-12-27 15:03:11.820Z140.609° SSE2024-12-27 15:06:11.820Z118.547° SE14.201°2024-12-27 15:10:11.820Z89.811° E
15 mins2024-12-27 16:57:11.820Z211.274° SW2024-12-27 17:04:11.820Z146.202° SSE41.691°2024-12-27 17:12:11.820Z57.47° ENE
15 mins2024-12-27 18:57:11.820Z262.854° W2024-12-27 19:04:11.820Z329.416° NNW38.28°2024-12-27 19:12:11.820Z49.811° ENE
|